Location: Copper Breaks State Park
(34.1132°N, 99.7492°W)
Time: 23:16:35
(UTC-05:00)

Amateur Radio Satellites - All Passes

Search period start: 23 October 2017 22:46
Search period end: 24 October 2017 22:46
Location: Copper Breaks State Park, 34.1132°N, 99.7492°W

Satellite Date Start Highest point End Downlink Frequencies (MHz)
Time Altitude Azimuth
BEESAT 2 23 Oct 22:56:03 22:59:39 32° 247° (WSW) 23:03:13 435.950
PRISM 23 Oct 22:59:01 23:00:47 12° 94° (E) 23:02:32 437.425
YUBILEINY 23 Oct 23:00:23 23:07:19 27° 276° (W) 23:14:16 435.215
UNISAT 6 23 Oct 23:04:07 23:08:26 42° 98° (E) 23:12:37 437.425
AO-85 23 Oct 23:13:51 23:18:17 41° 246° (WSW) 23:23:01 145.980
TIGRISAT 23 Oct 23:17:41 23:22:09 55° 100° (E) 23:26:29 435.000
EO-88 23 Oct 23:41:16 23:44:07 21° 264° (W) 23:46:58 145.990 - 145.960
RS-15 24 Oct 00:15:15 00:26:51 52° 109° (ESE) 00:38:32 29.354- 29.394
LO-87 24 Oct 00:17:01 00:20:35 73° 259° (W) 00:24:12 145.935 - 145.965
FO-29 24 Oct 00:20:54 00:25:10 17° 297° (WNW) 00:29:37 435.910
SPROUT 24 Oct 00:20:56 00:23:30 16° 68° (ENE) 00:26:05 437.525
ESTCUBE 1 24 Oct 00:26:17 00:30:47 87° 78° (ENE) 00:35:17 437.505/2401.250
PRISM 24 Oct 00:32:17 00:36:11 41° 287° (WNW) 00:40:04 437.425
UNISAT 6 24 Oct 00:42:06 00:44:42 15° 294° (WNW) 00:47:17 437.425
EO-79 24 Oct 00:48:15 00:51:32 22° 96° (E) 00:54:48 145.935-145.965
POLYITAN 1 24 Oct 00:53:57 00:57:29 25° 96° (E) 01:00:58 437.675
TIGRISAT 24 Oct 00:56:38 00:58:15 12° 295° (WNW) 00:59:52 435.000
AIST 2D 24 Oct 01:12:27 01:15:46 44° 285° (WNW) 01:19:04 435.315
NANOSAT C BR1 24 Oct 01:13:12 01:17:10 38° 99° (E) 01:21:05 145.865
QB50P2 24 Oct 01:14:03 01:18:12 51° 100° (E) 01:22:18 145.880/145.840
DUCHIFAT 1 24 Oct 01:21:34 01:25:35 42° 99° (E) 01:29:32 145.980
VELOX 1 24 Oct 01:34:36 01:38:57 81° 78° (ENE) 01:43:22 145.980
50 SAT 24 Oct 01:35:01 01:36:57 15° 70° (ENE) 01:38:54 437.505
NO-84 24 Oct 01:48:25 01:52:13 33° 125° (SE) 01:56:05 435.350 FM
Oscar 19 24 Oct 01:53:52 01:55:34 12° 92° (E) 01:57:16 437.125/150
SPROUT 24 Oct 01:55:06 01:59:02 36° 262° (W) 02:03:02 437.525
EO-79 24 Oct 02:23:43 02:27:11 25° 289° (WNW) 02:30:38 145.935-145.965
RS-15 24 Oct 02:27:52 02:39:27 46° 309° (NW) 02:51:08 29.354- 29.394
DX 1 24 Oct 02:27:52 02:32:10 75° 75° (ENE) 02:36:29 434.975-435.025
POLYITAN 1 24 Oct 02:29:51 02:33:05 21° 290° (WNW) 02:36:17 437.675
UKube-1 24 Oct 02:43:17 02:47:31 69° 76° (ENE) 02:51:48 .
BUGSAT 1 24 Oct 02:48:17 02:52:29 72° 283° (WNW) 02:56:35 437.445
NANOSAT C BR1 24 Oct 02:50:10 02:52:29 15° 293° (WNW) 02:54:48 145.865
QB50P2 24 Oct 02:52:10 02:53:28 11° 294° (WNW) 02:54:47 145.880/145.840
Gurwin Techsat 1B 24 Oct 02:55:08 03:00:03 37° 99° (E) 03:04:55 435.225
DUCHIFAT 1 24 Oct 02:58:47 03:00:49 13° 293° (WNW) 03:02:51 145.980
50 SAT 24 Oct 03:06:38 03:09:03 19° 263° (W) 03:11:29 437.505
M-CUBED/EXP-1 PRIME 24 Oct 03:13:19 03:16:58 48° 105° (ESE) 03:20:54 437.505
NO-84 24 Oct 03:25:53 03:29:38 29° 320° (NW) 03:33:22 435.350 FM
Oscar 19 24 Oct 03:30:11 03:35:15 65° 286° (WNW) 03:40:18 437.125/150
ITUPSAT 1 24 Oct 03:50:39 03:55:11 43° 72° (ENE) 03:59:45 437.325
AO-7 24 Oct 03:57:03 04:03:17 23° 96° (E) 04:09:26 .
BEESAT 24 Oct 04:03:07 04:07:49 62° 74° (ENE) 04:12:33 436.000
ITAMSAT 1 24 Oct 04:13:20 04:16:35 16° 94° (E) 04:19:47 435.822/435.867
MOZHAYETS 4 24 Oct 04:19:05 04:23:43 78° 258° (WSW) 04:28:22
Gurwin Techsat 1B 24 Oct 04:35:36 04:39:43 23° 293° (WNW) 04:43:50 435.225
CUBESAT XI-V 24 Oct 04:41:51 04:46:03 36° 72° (ENE) 04:50:15 437.345
RS-15 24 Oct 04:49:48 04:56:23 15° 339° (NNW) 05:02:56 29.354- 29.394
M-CUBED/EXP-1 PRIME 24 Oct 04:50:17 04:51:03 10° 296° (WNW) 04:51:49 437.505
JUGNU 24 Oct 04:51:11 04:54:11 14° 167° (SSE) 04:57:09 437.505
KKS-1 24 Oct 05:16:54 05:20:24 23° 69° (ENE) 05:23:55 437.445
ITUPSAT 1 24 Oct 05:30:15 05:33:09 16° 266° (W) 05:36:04 437.325
STARS 24 Oct 05:38:35 05:41:11 16° 67° (ENE) 05:43:48 437.465
BEESAT 24 Oct 05:44:43 05:45:55 11° 268° (W) 05:47:06 436.000
AO-7 24 Oct 05:48:15 05:56:27 66° 291° (WNW) 06:04:40 .
ITAMSAT 1 24 Oct 05:51:11 05:56:14 49° 288° (WNW) 06:01:15 435.822/435.867
CUBESAT XI-V 24 Oct 06:20:22 06:23:28 18° 266° (W) 06:26:35 437.345
SO-50 24 Oct 06:23:03 06:27:26 60° 116° (ESE) 06:31:51 436.795
O/OREOS (USA 219) 24 Oct 06:24:19 06:28:26 31° 65° (ENE) 06:32:29 437.305
DOVE 4 24 Oct 06:31:58 06:37:03 60° 100° (E) 06:42:16 437.250
JUGNU 24 Oct 06:38:20 06:42:29 20° 177° (S) 06:46:36 437.505
XW-2C 24 Oct 06:42:43 06:44:07 12° 93° (E) 06:45:31 145.795 - 145.815
CUTE-I 24 Oct 06:52:22 06:55:50 17° 94° (E) 06:59:18 437.470
KKS-1 24 Oct 06:53:07 06:56:47 26° 263° (W) 07:00:30 437.445
RS-15 24 Oct 07:10:30 07:16:37 15° 19° (NNE) 07:22:36 29.354- 29.394
KAITUO 1B 24 Oct 07:13:03 07:15:55 21° 96° (E) 07:18:46 145.475/437.950
STARS 24 Oct 07:13:03 07:17:09 39° 261° (W) 07:21:18 437.465
STRAND 1 24 Oct 07:16:08 07:19:31 18° 66° (ENE) 07:22:55 437.568
NUDT-PHONESAT 24 Oct 07:19:49 07:22:51 24° 97° (E) 07:25:53 437.300
XW-2F 24 Oct 07:21:51 07:25:19 37° 98° (E) 07:28:47 145.980 - 146.000
SRMSAT 24 Oct 07:23:08 07:25:25 12° 165° (SSE) 07:27:41 437.500
LilacSat-2 24 Oct 07:36:08 07:39:53 73° 101° (E) 07:43:38 437.200
XW-2D 24 Oct 07:37:34 07:41:18 73° 101° (E) 07:45:01 145.860 - 145.880
PCSat 24 Oct 07:41:39 07:46:42 42° 110° (ESE) 07:51:46 145.827
AO-7 24 Oct 07:44:54 07:47:38 12° 309° (NW) 07:50:23 .
XW-2B 24 Oct 07:51:10 07:54:55 75° 283° (WNW) 07:58:38 145.730 - 145.750
ISS 24 Oct 08:02:39 08:04:37 15° 128° (SE) 08:06:36 437.550
O/OREOS (USA 219) 24 Oct 08:04:16 08:07:34 20° 259° (W) 08:10:51 437.305
SO-50 24 Oct 08:05:59 08:08:16 14° 313° (NW) 08:10:34 436.795
DOVE 4 24 Oct 08:11:27 08:14:12 15° 294° (WNW) 08:17:00 437.250
XW-2C 24 Oct 08:14:59 08:18:23 33° 286° (WNW) 08:21:45 145.795 - 145.815
JUGNU 24 Oct 08:27:00 08:30:48 18° 188° (S) 08:34:35 437.505
CUTE-I 24 Oct 08:30:54 08:36:04 49° 288° (WNW) 08:41:13 437.470
FO-29 24 Oct 08:44:36 08:48:27 21° 64° (ENE) 08:52:29 435.910
KAITUO 1B 24 Oct 08:47:08 08:49:43 18° 289° (WNW) 08:52:19 145.475/437.950
HO-68 24 Oct 08:47:30 08:54:43 75° 104° (ESE) 09:01:54 435.675
AO-73 24 Oct 08:49:14 08:50:01 10° 91° (E) 08:50:48 145.935
STRAND 1 24 Oct 08:53:23 08:58:16 46° 260° (W) 09:03:13 437.568
nSIGHT-1 24 Oct 08:53:26 08:56:37 80° 136° (SE) 08:59:48 .
NUDT-PHONESAT 24 Oct 08:54:14 08:56:28 16° 290° (WNW) 08:58:42 437.300
XW-2F 24 Oct 08:57:56 08:59:02 11° 292° (WNW) 09:00:08 145.980 - 146.000
SEEDS 24 Oct 09:03:13 09:07:24 85° 102° (ESE) 09:11:35 437.485
CUTE 1.7 + AOD 2 24 Oct 09:04:50 09:08:55 52° 285° (WNW) 09:13:00 437.475
SRMSAT 24 Oct 09:09:49 09:13:51 19° 175° (S) 09:17:53 437.500
ZACube-1 24 Oct 09:11:36 09:15:07 24° 96° (E) 09:18:32 437.345
AAUSAT CUBESAT 2 24 Oct 09:13:49 09:17:46 44° 99° (E) 09:21:43 437.432
CUBEBUG 2 24 Oct 09:14:37 09:19:11 78° 283° (WNW) 09:23:34 437.445
XW-2A 24 Oct 09:18:01 09:21:20 76° 100° (E) 09:24:38 145.665 - 145.685
RS-15 24 Oct 09:22:24 09:33:36 44° 50° (NE) 09:44:10 29.354- 29.394
PCSat 24 Oct 09:25:55 09:30:12 24° 306° (NW) 09:34:32 145.827
ISS 24 Oct 09:37:47 09:40:50 37° 322° (NW) 09:43:54 437.550
Oscar 11 24 Oct 09:40:10 09:43:59 31° 97° (E) 09:47:48 .
UWE-3 24 Oct 09:43:28 09:47:52 64° 284° (WNW) 09:52:05 435.000/436.395/437.385
YUBILEINY 24 Oct 09:58:16 10:06:53 73° 93° (E) 10:15:34 435.215
UNISAT 6 24 Oct 09:59:10 10:02:56 25° 70° (ENE) 10:06:44 437.425
NO-84 24 Oct 10:02:10 10:05:45 36° 42° (NE) 10:09:03 435.350 FM
TIGRISAT 24 Oct 10:12:18 10:16:24 31° 71° (ENE) 10:20:33 435.000
AO-73 24 Oct 10:22:23 10:26:31 49° 286° (WNW) 10:30:32 145.935
FO-29 24 Oct 10:28:17 10:33:10 40° 263° (W) 10:38:24 435.910
nSIGHT-1 24 Oct 10:31:56 10:33:14 12° 332° (NNW) 10:34:33 .
HO-68 24 Oct 10:37:01 10:41:38 19° 300° (WNW) 10:46:15 435.675
ZACube-1 24 Oct 10:47:55 10:51:14 22° 290° (WNW) 10:54:30 437.345
AAUSAT CUBESAT 2 24 Oct 10:51:09 10:52:47 12° 293° (WNW) 10:54:26 437.432
SRMSAT 24 Oct 10:58:20 11:02:20 19° 185° (S) 11:06:22 437.500
BEESAT 3 24 Oct 11:11:41 11:15:10 30° 113° (ESE) 11:18:43 437.485
EO-88 24 Oct 11:12:35 11:15:57 36° 98° (E) 11:19:19 145.990 - 145.960
Oscar 11 24 Oct 11:16:57 11:19:51 18° 291° (WNW) 11:22:45 .
PRISM 24 Oct 11:17:08 11:21:10 79° 76° (ENE) 11:25:14 437.425
Max Valier Satellite 24 Oct 11:32:37 11:36:16 72° 283° (WNW) 11:39:52 145.860
RS-15 24 Oct 11:35:03 11:46:08 51° 251° (WSW) 11:56:41 29.354- 29.394
DELFI C3 24 Oct 11:35:06 11:38:56 48° 285° (WNW) 11:42:45 145.870
UNISAT 6 24 Oct 11:35:33 11:39:28 27° 264° (W) 11:43:28 437.425
EO-79 24 Oct 11:39:11 11:40:09 11° 66° (ENE) 11:41:08 145.935-145.965
NO-84 24 Oct 11:40:25 11:42:47 16° 239° (WSW) 11:45:01 435.350 FM
AIST 2D 24 Oct 11:42:46 11:45:51 30° 74° (ENE) 11:48:56 435.315
POLYITAN 1 24 Oct 11:44:16 11:46:08 13° 67° (ENE) 11:48:01 437.675
AO-85 24 Oct 11:48:01 11:49:00 11° 108° (ESE) 11:49:58 145.980
LO-87 24 Oct 11:49:30 11:50:36 11° 93° (E) 11:51:41 145.935 - 145.965
TIGRISAT 24 Oct 11:49:32 11:53:02 21° 265° (W) 11:56:37 435.000
YUBILEINY 24 Oct 11:58:25 12:04:25 20° 291° (WNW) 12:10:30 435.215
NANOSAT C BR1 24 Oct 12:02:12 12:05:07 18° 69° (ENE) 12:08:02 145.865
QB50P2 24 Oct 12:03:11 12:06:35 24° 70° (ENE) 12:10:01 145.880/145.840
DUCHIFAT 1 24 Oct 12:10:09 12:13:12 20° 69° (ENE) 12:16:15 145.980
ESTCUBE 1 24 Oct 12:22:58 12:26:36 24° 96° (E) 12:30:13 437.505/2401.250
BEESAT 2 24 Oct 12:42:40 12:46:38 80° 298° (WNW) 12:50:42 435.950
EO-88 24 Oct 12:48:23 12:49:12 11° 292° (WNW) 12:50:00 145.990 - 145.960
SRMSAT 24 Oct 12:48:38 12:50:47 12° 195° (SSW) 12:52:57 437.500
BEESAT 3 24 Oct 12:49:50 12:52:44 19° 308° (NW) 12:55:40 437.485
Oscar 19 24 Oct 13:07:13 13:09:30 13° 64° (ENE) 13:11:47 437.125/150
EO-79 24 Oct 13:11:11 13:15:22 55° 260° (W) 13:19:35 145.935-145.965
POLYITAN 1 24 Oct 13:17:21 13:21:27 46° 260° (W) 13:25:36 437.675
AIST 2D 24 Oct 13:17:54 13:19:04 11° 267° (W) 13:20:14 435.315
LO-87 24 Oct 13:20:48 13:24:05 33° 286° (WNW) 13:27:20 145.935 - 145.965
AO-85 24 Oct 13:25:12 13:28:53 42° 302° (WNW) 13:32:40 145.980
VELOX 1 24 Oct 13:28:59 13:32:16 20° 95° (E) 13:35:32 145.980
BUGSAT 1 24 Oct 13:33:43 13:37:43 44° 74° (ENE) 13:41:45 437.445
NANOSAT C BR1 24 Oct 13:36:47 13:40:32 30° 262° (W) 13:44:20 145.865
QB50P2 24 Oct 13:38:49 13:42:14 23° 264° (W) 13:45:41 145.880/145.840
SPROUT 24 Oct 13:43:57 13:48:06 46° 99° (E) 13:52:12 437.525
DUCHIFAT 1 24 Oct 13:44:58 13:48:37 28° 263° (W) 13:52:19 145.980
M-CUBED/EXP-1 PRIME 24 Oct 13:56:36 13:59:26 26° 69° (ENE) 14:02:14 437.505
ESTCUBE 1 24 Oct 13:59:36 14:03:16 25° 290° (WNW) 14:06:56 437.505/2401.250
Gurwin Techsat 1B 24 Oct 14:12:29 14:17:25 41° 71° (ENE) 14:22:23 435.225
DX 1 24 Oct 14:20:45 14:23:37 17° 95° (E) 14:26:29 434.975-435.025
50 SAT 24 Oct 14:28:22 14:30:59 22° 97° (E) 14:33:36 437.505
UKube-1 24 Oct 14:35:15 14:37:44 15° 94° (E) 14:40:13 .
Oscar 19 24 Oct 14:43:05 14:48:12 65° 259° (WSW) 14:53:20 437.125/150
AO-7 24 Oct 14:52:38 14:58:54 25° 59° (ENE) 15:05:09 .
SO-50 24 Oct 14:58:14 15:01:45 21° 52° (NE) 15:05:18 436.795
VELOX 1 24 Oct 15:04:48 15:08:40 30° 289° (WNW) 15:12:31 145.980
BUGSAT 1 24 Oct 15:11:42 15:13:15 12° 267° (W) 15:14:47 437.445
SPROUT 24 Oct 15:21:42 15:23:31 13° 294° (WNW) 15:25:20 437.525
nSIGHT-1 24 Oct 15:24:01 15:26:15 17° 32° (NNE) 15:28:30 .
ITAMSAT 1 24 Oct 15:27:51 15:31:18 18° 66° (ENE) 15:34:48 435.822/435.867
M-CUBED/EXP-1 PRIME 24 Oct 15:32:46 15:33:54 11° 260° (W) 15:35:02 437.505
Gurwin Techsat 1B 24 Oct 15:53:37 15:57:27 20° 265° (W) 16:01:19 435.225
DX 1 24 Oct 15:55:53 15:59:50 34° 288° (WNW) 16:03:46 434.975-435.025
ITUPSAT 1 24 Oct 15:56:14 15:58:55 15° 94° (E) 16:01:35 437.325
50 SAT 24 Oct 16:01:15 16:03:03 14° 290° (WNW) 16:04:50 437.505
BEESAT 24 Oct 16:07:44 16:11:18 21° 95° (E) 16:14:51 436.000
ISS 24 Oct 16:08:21 16:11:26 38° 39° (NE) 16:14:31 437.550
UKube-1 24 Oct 16:09:51 16:13:50 37° 288° (WNW) 16:17:50 .
MOZHAYETS 4 24 Oct 16:18:08 16:22:12 31° 97° (E) 16:26:14
PCSat 24 Oct 16:34:09 16:37:37 17° 51° (NE) 16:41:03 145.827
SO-50 24 Oct 16:38:01 16:42:17 38° 247° (WSW) 16:46:38 436.795
AO-7 24 Oct 16:42:42 16:50:56 67° 255° (WSW) 16:59:12 .
CUBESAT XI-V 24 Oct 16:44:03 16:45:36 12° 92° (E) 16:47:10 437.345
nSIGHT-1 24 Oct 16:59:37 17:02:39 39° 228° (SW) 17:05:39 .
ITAMSAT 1 24 Oct 17:05:23 17:10:20 46° 260° (W) 17:15:22 435.822/435.867
ITUPSAT 1 24 Oct 17:32:21 17:36:55 46° 287° (WNW) 17:41:27 437.325
DOVE 4 24 Oct 17:34:19 17:38:07 34° 72° (ENE) 17:42:05 437.250
BEESAT 24 Oct 17:44:49 17:49:04 33° 289° (WNW) 17:53:18 436.000
ISS 24 Oct 17:45:42 17:47:39 15° 233° (SW) 17:49:35 437.550
MOZHAYETS 4 24 Oct 17:55:47 17:59:06 20° 291° (WNW) 18:02:24
XW-2F 24 Oct 18:01:05 18:02:13 11° 68° (ENE) 18:03:21 145.980 - 146.000
CUTE-I 24 Oct 18:10:36 18:14:25 20° 66° (ENE) 18:18:15 437.470
LilacSat-2 24 Oct 18:14:51 18:17:41 20° 71° (ENE) 18:20:32 437.200
XW-2D 24 Oct 18:15:38 18:18:25 20° 71° (ENE) 18:21:11 145.860 - 145.880
PCSat 24 Oct 18:16:04 18:21:26 62° 248° (WSW) 18:26:44 145.827
CUBESAT XI-V 24 Oct 18:18:44 18:23:14 54° 285° (WNW) 18:27:43 437.345
XW-2B 24 Oct 18:28:44 18:31:58 27° 73° (ENE) 18:35:13 145.730 - 145.750
KKS-1 24 Oct 18:46:39 18:51:08 78° 102° (ESE) 18:55:37 437.445
XW-2C 24 Oct 18:51:44 18:55:27 59° 76° (ENE) 18:59:11 145.795 - 145.815
STARS 24 Oct 19:05:39 19:09:56 47° 100° (E) 19:14:11 437.465
HO-68 24 Oct 19:12:11 19:18:38 38° 67° (ENE) 19:25:07 435.675
DOVE 4 24 Oct 19:13:25 19:15:56 15° 267° (W) 19:18:31 437.250
KAITUO 1B 24 Oct 19:21:51 19:25:33 74° 259° (W) 19:29:16 145.475/437.950
NUDT-PHONESAT 24 Oct 19:27:47 19:31:27 63° 259° (W) 19:35:08 437.300
XW-2F 24 Oct 19:32:24 19:35:56 38° 261° (W) 19:39:28 145.980 - 146.000
XW-2A 24 Oct 19:46:48 19:48:27 13° 70° (ENE) 19:50:06 145.665 - 145.685
LilacSat-2 24 Oct 19:48:53 19:51:49 21° 264° (W) 19:54:44 437.200
CUTE-I 24 Oct 19:49:05 19:54:05 43° 261° (W) 19:59:09 437.470
XW-2D 24 Oct 19:49:30 19:52:26 21° 264° (W) 19:55:22 145.860 - 145.880
SEEDS 24 Oct 19:51:04 19:54:50 33° 73° (ENE) 19:58:34 437.485
CUTE 1.7 + AOD 2 24 Oct 19:53:09 19:57:19 63° 76° (ENE) 20:01:29 437.475
AAUSAT CUBESAT 2 24 Oct 20:00:59 20:03:46 18° 70° (ENE) 20:06:33 437.432
XW-2B 24 Oct 20:03:54 20:06:08 15° 266° (W) 20:08:22 145.730 - 145.750
ZACube-1 24 Oct 20:04:32 20:06:56 14° 67° (ENE) 20:09:18 437.345
CUBEBUG 2 24 Oct 20:08:00 20:12:34 54° 75° (ENE) 20:17:13 437.445
YUBILEINY 24 Oct 20:13:47 20:21:14 30° 73° (ENE) 20:28:38 435.215
O/OREOS (USA 219) 24 Oct 20:32:12 20:36:44 75° 108° (ESE) 20:41:20 437.305
Oscar 11 24 Oct 20:32:15 20:34:52 16° 68° (ENE) 20:37:29 .
UWE-3 24 Oct 20:35:39 20:40:14 62° 76° (ENE) 20:44:52 435.000/436.395/437.385
STARS 24 Oct 20:43:40 20:45:49 13° 294° (WNW) 20:47:57 437.465
HO-68 24 Oct 20:59:51 21:06:16 35° 262° (W) 21:12:45 435.675
BEESAT 2 24 Oct 21:04:23 21:07:18 19° 52° (NE) 21:10:10 435.950
STRAND 1 24 Oct 21:07:20 21:12:31 83° 102° (ESE) 21:17:40 437.568
BEESAT 3 24 Oct 21:08:29 21:12:25 76° 60° (ENE) 21:16:17 437.485
AO-73 24 Oct 21:12:58 21:17:31 76° 77° (ENE) 21:22:04 145.935
XW-2A 24 Oct 21:18:01 21:20:53 25° 263° (W) 21:23:45 145.665 - 145.685
SEEDS 24 Oct 21:28:06 21:30:33 15° 266° (W) 21:33:01 437.485
AAUSAT CUBESAT 2 24 Oct 21:35:26 21:38:58 28° 263° (W) 21:42:32 437.432
ZACube-1 24 Oct 21:38:20 21:42:44 48° 261° (W) 21:47:10 437.345
FO-29 24 Oct 21:39:15 21:45:54 35° 97° (E) 21:52:52 435.910
CUBEBUG 2 24 Oct 21:47:31 21:49:26 12° 269° (W) 21:51:23 437.445
AO-85 24 Oct 21:58:31 22:03:03 50° 59° (ENE) 22:07:55 145.980
Oscar 11 24 Oct 22:06:40 22:10:40 36° 262° (W) 22:14:40 .
Max Valier Satellite 24 Oct 22:07:46 22:10:52 26° 73° (ENE) 22:14:00 145.860
YUBILEINY 24 Oct 22:09:50 22:18:15 52° 270° (W) 22:26:42 435.215
DELFI C3 24 Oct 22:16:08 22:19:54 50° 75° (ENE) 22:23:42 145.870
UWE-3 24 Oct 22:16:15 22:17:00 10° 269° (W) 22:17:43 435.000/436.395/437.385
